Regional Weather Roundup
Issued by NWS Goodland, KS

Home | Current Version | Previous Version | Graphics & Text | Print | Product List | Glossary On
Versions: 1 2 3 4 5 6 7 8 9 10 11 12 13 14 15 16 17 18 19 20 21 22 23 24 25 26 27 28 29 30 31 32 33 34 35 36 37 38 39 40 41 42 43 44 45 46 47 48 49 50
000
ASUS43 KGLD 231308
RWRGLD

GOODLAND FORECAST AREA HOURLY WEATHER ROUNDUP
NATIONAL WEATHER SERVICE GOODLAND KS
700 AM MDT SUN JUL 23 2017

...OFFICIAL OBSERVATIONS...

CITY           SKY/WX    TMP DP  RH WIND       PRES   REMARKS
GOODLAND KS    MOSUNNY   63  56  78 W3        30.12R
HILL CITY KS   CLOUDY    70  70 100 SW3       30.05R FOG
IMPERIAL NEB   SUNNY     65  55  70 W7        30.09S
MCCOOK NEB     SUNNY     62  58  86 SW5       30.07R FOG
AKRON CO       SUNNY     66  48  52 SW7       30.18R
BURLINGTON CO  MOSUNNY   62  55  77 NW6       30.15S
LIMON CO       SUNNY     58  56  93 N3        30.24R
$$

...UNOFFICIAL OBSERVATIONS...

CITY           SKY/WX    TMP DP  RH WIND       PRES   REMARKS
LENORA KS        N/A     66  32  28 MISG        N/A
NORTON KS      FOG       68  64  88 NW6       30.04  VSB 1/4
SHARON SPRINGS   N/A     63  57  82 CALM        N/A
TRENTON NEB      N/A     63  32  31 CALM        N/A
KIT CARSON CO    N/A     65  56  71 CALM        N/A
YUMA CO        FAIR      61  46  59 W6        30.15R
$$




USA.gov is the U.S. government's official web portal to all federal, state and local government web resources and services.